This is the latest recevied weather packets stored in our database for station/object WY7EM. If no packets are shown the sender has not sent any weather packets the latest 10 day(s).
| Time | Temp. | Humidity | Pressure | Rain* | Wind** | Luminosity | Snow |
|---|---|---|---|---|---|---|---|
| 1777739442 | 17.22° C | 20% | 1021.1 hPa | 0 mm | - | 575 W/m² | - |
| 1777739139 | 17.22° C | 20% | 1021.1 hPa | 0 mm | - | 560 W/m² | - |
| 1777738836 | 16.67° C | 20% | 1021.1 hPa | 0 mm | - | 548 W/m² | - |
| 1777738532 | 16.67° C | 20% | 1021 hPa | 0 mm | - | 533 W/m² | - |
| 1777738230 | 16.67° C | 20% | 1021.1 hPa | 0 mm | - | 518 W/m² | - |
| 1777737928 | 15.56° C | 20% | 1021.2 hPa | 0 mm | - | 502 W/m² | - |
| 1777737626 | 16.11° C | 21% | 1021.1 hPa | 0 mm | - | 486 W/m² | - |
| 1777737325 | 15.56° C | 21% | 1021 hPa | 0 mm | - | 471 W/m² | - |
| 1777737021 | 15.56° C | 22% | 1021.2 hPa | 0 mm | - | 455 W/m² | - |
| 1777736717 | 15° C | 22% | 1021 hPa | 0 mm | - | 431 W/m² | - |
| 1777736078 | 15° C | 22% | 1020.8 hPa | 0 mm | - | 400 W/m² | - |
| 1777735774 | 13.89° C | 23% | 1020.8 hPa | 0 mm | - | 382 W/m² | - |
| 1777735472 | 13.89° C | 22% | 1020.8 hPa | 0 mm | - | 363 W/m² | - |
| 1777735170 | 14.44° C | 22% | 1020.8 hPa | 0 mm | - | 342 W/m² | - |
| 1777734866 | 14.44° C | 24% | 1021 hPa | 0 mm | - | 323 W/m² | - |
| 1777734564 | 13.89° C | 24% | 1020.7 hPa | 0 mm | - | 303 W/m² | - |
| 1777734260 | 13.89° C | 23% | 1020.7 hPa | 0 mm | - | 285 W/m² | - |
| 1777733957 | 13.33° C | 23% | 1020.8 hPa | 0 mm | - | 270 W/m² | - |
| 1777733653 | 13.89° C | 22% | 1020.8 hPa | 0 mm | - | 252 W/m² | - |
| 1777733350 | 13.89° C | 23% | 1020.6 hPa | 0 mm | - | 234 W/m² | - |
| 1777733047 | 13.33° C | 22% | 1020.6 hPa | 0 mm | - | 217 W/m² | - |
| 1777732743 | 12.78° C | 23% | 1020.5 hPa | 0 mm | - | 201 W/m² | - |
| 1777732440 | 12.78° C | 23% | 1020.5 hPa | 0 mm | - | 187 W/m² | - |
| 1777732137 | 12.78° C | 24% | 1020.5 hPa | 0 mm | - | 52 W/m² | - |
| 1777731834 | 12.78° C | 24% | 1020.5 hPa | 0 mm | - | 82 W/m² | - |
* Rain latest hour (hover to see other rain measurements)
** Current wind speed in m/s (hover to see current wind gust speed)